www.pogodaiklimat.ru

Погода и климат >> Архив погоды >> Индия >> Пондичерри >> Пондичерри


ПОГОДА в Пондичерри

  • Прогноз погоды в Пондичерри
  • Монитор погоды в Пондичерри

АРХИВ ПОГОДЫ в Пондичерри

Время (UTC), дата Ветер
(напр.,м/с)
 
Видим.   Явления Облачность Т
(С)
Тd
(С)
f
(%)
Тe
(С)
Тes
(С)
Комфортность P
(гПа)
Po
(гПа)
Тmin
(С)
Tmax
(С)
R
(мм)
R24
(мм)
S
(см)
03 20.05 Ю 2 10 км 4/3 600 м
[Sc Ci fib]
+30.6 +26.2 77 +46 +52 опасность
перегрева
1010.0 1005.7 +27.5 +35.2
06 20.05 Ю 1 10 км 3/1 600 м
[Sc Ci fib]
+36.0 +25.7 56 +51 +72 опасность
перегрева
1009.4 1005.2
09 20.05 Ю 1 10 км 3/1 600 м
[Sc Ci fib]
+35.6 +26.5 59 +52 +67 опасность
перегрева
1006.7 1002.5
12 20.05 ЮВ 1 10 км 3/1 600 м
[Sc Ci fib]
+32.2 +27.2 75 +51 +52 опасность
перегрева
1006.0 1001.8 +36.2
15 20.05 Ю 2 4000 м 3/1 600 м
[Sc Ci fib]
+29.8 +26.5 83 +46 +46 опасность
перегрева
1007.6 1003.3
18 20.05 Ю 2 4000 м 1/0
[Ci fib]
+29.6 +27.4 88 +48 +48 опасность
перегрева
1008.3 1004.0
21 20.05 Ю 1 4000 м 1/0
[Ci fib]
+29.0 +27.1 90 +46 +46 опасность
перегрева
1007.3 1003.0
00 21.05 Ю 1 4000 м 4/3 600 м
[Sc Ci fib]
+27.8 +26.1 90 +42 +42 опасность
перегрева
1007.7 1003.5
03 21.05 Ю 1 10 км 4/1 600 м
[Sc Ci fib]
+30.4 +26.2 78 +46 +54 опасность
перегрева
1009.6 1005.3 +27.8 +36.2
06 21.05 Ю 2 10 км 3/0
[Ci fib]
+35.2 +26.0 59 +51 +72 опасность
перегрева
1009.3 1005.1
09 21.05 Ю 1 10 км 4/0
[Ci fib]
+35.2 +26.3 60 +51 +68 опасность
перегрева
1007.2 1003.0
12 21.05 Ю 1 10 км 3/0
[Ci fib]
+32.0 +26.7 74 +49 +51 опасность
перегрева
1006.1 1001.9 +36.2
15 21.05 ЮВ 1 4000 м 1/0
[Ci fib]
+34.0 +25.9 63 +50 +50 опасность
перегрева
1008.1 1003.8
18 21.05 Ю 2 4000 м 3/0
[Ci fib]
+30.0 +27.2 85 +48 +48 опасность
перегрева
1008.4 1004.1
21 21.05 Ю 2 4000 м 6/4 600 м
[Sc Ci fib]
+28.8 +26.3 86 +44 +44 опасность
перегрева
1007.1 1002.8
00 22.05 ЮЗ 1 4000 м 4/3 600 м
[Sc Ci fib]
+28.6 +26.4 88 +44 +44 опасность
перегрева
1008.2 1003.9
03 22.05 Ю 1 10 км 8/5 600 м
[Sc Ac trans]
+30.4 +26.2 78 +46 +49 опасность
перегрева
1008.9 1004.6 +28.2 +36.2
06 22.05 Ю 1 10 км 6/4 600 м
[Sc Ac trans]
+35.0 +26.1 60 +51 +63 опасность
перегрева
1008.7 1004.5
09 22.05 ЮЗ 2 10 км 5/3 600 м
[Sc Ac trans]
+34.8 +26.8 63 +52 +62 опасность
перегрева
1006.4 1002.2
12 22.05 Ю 2 10 км 4/1 600 м
[Sc Ac trans]
+31.8 +27.4 78 +51 +52 опасность
перегрева
1005.4 1001.2 +35.8
15 22.05 Ю 1 4000 м 3/3 600 м
[Sc]
+30.4 +26.8 81 +47 +47 опасность
перегрева
1007.6 1003.3
18 22.05 Ю 2 4000 м 5/3 600 м
[Sc Ac trans]
+29.4 +27.5 90 +48 +48 опасность
перегрева
1008.0 1003.7
21 22.05 ЮЗ 1 4000 м 5/3 600 м
[Sc Ac trans]
+29.0 +26.2 85 +44 +44 опасность
перегрева
1006.8 1002.5
00 23.05 ЮЗ 1 4000 м 5/3 600 м
[Sc Ac trans]
+28.4 +26.4 89 +43 +43 опасность
перегрева
1007.6 1003.3
03 23.05 Ю 1 10 км 8/5 600 м
[Sc Ac trans]
+31.2 +25.3 71 +45 +48 опасность
перегрева
1009.1 1004.9 +28.2 +35.8
06 23.05 ЮЗ 1 10 км 5/3 600 м
[Sc Ac trans]
+36.6 +25.1 52 +50 +64 опасность
перегрева
1009.1 1004.1
09 23.05 Ю 1 10 км 6/4 600 м
[Sc Ac trans]
+35.2 +27.0 63 +53 +62 опасность
перегрева
1005.6 1001.4
12 23.05 ЮЗ 1 10 км 5/3 600 м
[Sc Ac trans]
+32.2 +27.0 74 +50 +51 опасность
перегрева
1004.6 1000.4 +36.6
15 23.05 Ю 1 4000 м 3/3 600 м
[Sc]
+30.4 +26.2 78 +46 +46 опасность
перегрева
1007.1 1002.8
18 23.05 Ю 2 4000 м 5/3 600 м
[Sc Ac trans]
+30.2 +26.3 80 +46 +46 опасность
перегрева
1008.7 1004.4
21 23.05 ЮЗ 1 4000 м 5/3 600 м
[Sc Ac trans]
+29.4 +25.1 78 +43 +43 опасность
перегрева
1006.8 1002.5
00 24.05 Ю 2 4000 м 5/3 600 м
[Sc Ac trans]
+29.0 +26.5 86 +44 +44 опасность
перегрева
1007.1 1002.8
03 24.05 Ю 1 10 км 8/1 600 м
[Sc diur, vesp Ac trans Ci fib]
+31.0 +26.6 77 +47 +53 опасность
перегрева
1009.4 1005.1 +28.5 +36.6
06 24.05 Ю 1 10 км 8/3 600 м
[Sc diur, vesp Ac trans Ci fib]
+34.6 +26.3 62 +51 +62 опасность
перегрева
1008.4 1004.2
09 24.05 ЮВ 2 10 км 4/1 600 м
[Sc diur, vesp Ci fib]
+35.2 +27.3 64 +54 +68 опасность
перегрева
1006.3 1002.1
12 24.05 ЮВ 2 10 км 3/0
[Ci fib]
+32.0 +25.2 67 +46 +47 опасность
перегрева
1005.0 1000.8 +35.5
15 24.05 Ю 2 4000 м 3/3 600 м
[Sc]
+30.8 +27.5 83 +50 +50 опасность
перегрева
1006.9 1002.6
18 24.05 Ю 1 4000 м 3/0
[Ci fib]
+30.2 +26.0 78 +45 +45 опасность
перегрева
1008.1 1003.8
21 24.05 Ю 2 4000 м 1/0
[Ci fib]
+29.2 +27.0 88 +46 +46 опасность
перегрева
1006.5 1002.2
00 25.05 Ю 2 4000 м 3/0
[Ci fib]
+28.6 +26.4 88 +44 +44 опасность
перегрева
1006.8 1002.5
03 25.05 ЮВ 1 10 км 5/3 600 м
[Sc Ac trans]
+31.4 +26.1 74 +47 +53 опасность
перегрева
1007.9 1003.7 +28.4 +35.5
06 25.05 Ю 1 10 км 5/3 600 м
[Sc Ac trans]
+36.4 +25.2 53 +50 +65 опасность
перегрева
1006.9 1002.6
09 25.05 Ю 2 10 км 1/1 600 м
[Sc]
+35.6 +27.1 62 +54 +69 опасность
перегрева
1004.4 1000.2
12 25.05 ЮВ 2 10 км 3/1 600 м
[Sc Ci fib]
+32.2 +27.5 76 +51 +52 опасность
перегрева
1003.4 999.2 +36.8
15 25.05 Ю 2 4000 м 1/0
[Ci fib]
+31.4 +28.4 84 +53 +53 опасность
перегрева
1005.6 1001.4
18 25.05 Ю 2 4000 м 3/0
[Ci fib]
+30.6 +25.2 73 +44 +44 опасность
перегрева
1006.1 1001.8
21 25.05 Ю 2 4000 м 4/3 600 м
[Sc Ac trans]
+29.4 +26.0 82 +44 +44 опасность
перегрева
1004.4 1000.1
00 26.05 Ю 2 4000 м 3/0
[Ci fib]
+28.8 +26.0 85 +43 +43 опасность
перегрева
1005.0 1000.7
03 26.05 Ю 2 10 км 4/1 600 м
[Sc Ci fib]
+30.4 +25.6 76 +45 +52 опасность
перегрева
1006.6 1002.3 +28.4 +36.8
06 26.05 СЗ 1 10 км 4/1 600 м
[Sc Ci fib]
+37.2 +24.5 48 +49 +70 опасность
перегрева
1005.7 1001.5
09 26.05 Ю 2 10 км 4/0
[Ci fib]
+38.0 +25.8 50 +53 +68 опасность
перегрева
1002.8 998.6
12 26.05 ЮВ 2 10 км 3/0
[Ci fib]
+32.4 +27.2 74 +51 +52 опасность
перегрева
1002.3 998.1 +39.0
15 26.05 Ю 2 4000 м 3/0
[Ci fib]
+31.0 +27.4 81 +49 +49 опасность
перегрева
1004.8 1000.5
18 26.05 З 2 4000 м 3/0
[Ci fib]
+30.4 +25.6 76 +45 +45 опасность
перегрева
1006.2 1001.9
21 26.05 Ю 2 4000 м 1/0
[Ci fib]
+29.4 +26.0 82 +44 +44 опасность
перегрева
1004.0 999.7
00 27.05 Ю 2 4000 м 3/0
[Ci fib]
+28.8 +25.4 82 +42 +42 опасность
перегрева
1004.5 1000.2

 

Местоположение метеостанции Пондичерри (Пондичерри, Индия): широта 11.97 долгота 79.82 высота над уровнем моря 38 м.

В архиве по умолчанию представлена погода в Пондичерри за последнюю неделю. Архивные данные за месяц целиком и за предыдущие месяцы, начиная с января 2011 года, Вы можете получить, выбрав интересующий диапазон дат из раскрывающегося списка и нажав кнопку "Ввод!".


*Определитесь, кто Вы:
робот инопланетянин человек

Внимание! Время в таблицах - всемирное. Для получения местного времени необходимо прибавить поправку, которая равна 5.5 ч.

Смотрите также архив погоды в соседних городах и на ближайших метеорологических станциях:

Погода в Куддалоре (Тамилнад, Индия) (23 км)
Погода в Парангипеттае (Тамилнад, Индия) (53 км)
Погода в Карайкале (Пондичерри, Индия) (117 км)
Погода в Ченнаи аэропорту (Тамилнад, Индия) (121 км)
Погода в Веллоре (Тамилнад, Индия) (128 км)
Погода в Ченнаи (Тамилнад, Индия) (129 км)
Погода в Нагапаттинаме (Тамилнад, Индия) (134 км)
Погода в Терутани (Тамилнад, Индия) (135 км)
Погода в Тирупатчере (Тамилнад, Индия) (147 км)
Погода в Танджавуре (Тамилнад, Индия) (152 км)

Пояснения к столбцам:

Ветер - указаны скорость ветра в м/с - средняя за 10 мин, порывы в срок и между сроками (в фигурных скобках) и направление, откуда дует ветер: С - северный, СВ - северо-восточный, В - восточный, ЮВ - юго-восточный, Ю - южный, ЮЗ - юго-западный, З - западный, СЗ - северо-западный.
Видимость - горизонтальная дальность видимости в метрах или километрах. При видимости от 1 до 10 км при отсутствии осадков обычно наблюдается дымка, при ухудшении видимости до 1 км и менее - туман. В сухую погоду видимость может ухудшаться дымом, пылью или мглою.
Явления - указаны атмосферные явления, наблюдавшиеся в срок или в последний час перед сроком; фигурными скобками обозначены явления, наблюдавшиеся между сроками (за 1-3 часа до срока); квадратными скобками обозначены град или гололедные отложения с указанием их диаметра в мм.
Облачность - указаны через наклонную черту общая и нижняя облачность в баллах и высота нижней границы облаков в метрах; квадратными скобками обозначены формы облаков: Ci - перистые, Cs - перисто-слоистые, Cc - перисто-кучевые, Ac - высококучевые, As - высокослоистые, Sc - слоисто-кучевые, Ns - слоисто-дождевые, Cu - кучевые, Cb - кучево-дождевые. Подробнее классификацию облаков см. в Атласе облаков (PDF).
T - Температура воздуха - температура, измеренная на высоте 2 м над землей.
Td - Температура точки росы - температура, при понижении до которой содержащийся в воздухе водяной пар достигнет насыщения.
f - Относительная влажность воздуха - влажноcть воздуха, измеренная на высоте 2 м над землей.
Te - Эффективная температура - температура, которую ощущает одетый по сезону человек в тени. Характеристика душности погоды. При расчете учитывается влияние влажности воздуха и скорости ветра на теплоощущения человека.
Tes - Эффективная температура на солнце - температура, которую ощущает человек, с поправкой на солнечный нагрев. Характеристика знойности погоды. Зависит от высоты солнца над горизонтом, облачности и скорости ветра. Ночью, в пасмурную погоду, а также при ветре 12 м/с и более поправка равна нулю.
P - Атмосферное давление - приведенное к уровню моря атмосферное давление.
Po - Атмосферное давление - измеренное на уровне метеостанции атмосферное давление.
Tmin - Минимальная температура - минимум температуры воздуха на высоте 2 м над землей.
Tmax - Максимальная температура - максимум температуры воздуха на высоте 2 м над землей.
R - Количество осадков - Количество выпавших осадков за период времени, мм. При наведении курсора мыши на число - период времени, за который выпало указанное количество осадков.
R24 - Количество осадков - Количество выпавших осадков за 24 часа, мм.
S - Снежный покров - Высота снежного покрова, см. При наведении курсора мыши на число - состояние снежного покрова и степень покрытия местности в баллах.